Weather History for KI69 - February, 2014

Change the Weather History Date:

Sunday, February 16, 2014

  Actual Average (KCVG) Record (KCVG)
Temperature  
Mean Temperature 28 °F 35 °F  
Max Temperature 32 °F 43 °F 73 °F (1883)
Min Temperature 23 °F 26 °F 0 °F (2007)
Degree Days  
Heating Degree Days 38 30  
Month to date heating degree days 512  
Since 1 July heating degree days 3484  
Cooling Degree Days 0 0  
Month to date cooling degree days 0  
Year to date cooling degree days 0  
Moisture  
Dew Point 23 °F    
Average Humidity 81    
Maximum Humidity 100    
Minimum Humidity 64    
Precipitation  
Precipitation 0.00 in 0.10 in 1.53 in (1873)
Month to date precipitation 1.64  
Year to date precipitation 4.64  
Snow  
Snow 0.00 in 0.20 in 3.50 in (1993)
Month to date snowfall 4.1  
Since 1 July snowfall 16.2  
Snow Depth -    
Sea Level Pressure  
Sea Level Pressure 30.10 in    
Wind  
Wind Speed 4 mph (WNW)    
Max Wind Speed 16 mph    
Max Gust Speed 20 mph    
Visibility 9 miles    
Events Snow    
T = Trace of Precipitation, MM = Missing Value Source: NWS Daily Summary

Daily Weather History Graph

Daily Weather History Graph

Search for Another Location

Airport or City:

Trip Planner

Search our weather history database for the weather conditions in past years. The results will help you decide how hot, cold, wet, or windy it might be!

Date:

Astronomy

Feb. 16, 2014 Rise Set
Actual Time 7:27 AM EST 6:15 PM EST
Civil Twilight 6:59 AM EST 6:42 PM EST
Nautical Twilight 6:28 AM EST 7:13 PM EST
Astronomical Twilight 5:57 AM EST 7:44 PM EST
Moon 8:09 PM EST (2/16) 7:57 AM EST (2/16)
Length of Visible Light 11h 42m
Length of Day
10h 48m
Full, 97% of the Moon is Illuminated
Feb 16
Full
Feb 22
Last Quarter
Mar 1
New
Mar 8
First Quarter
Mar 16
Full

Hourly Weather History & Observations

Time (EST) Temp. Windchill Dew Point Humidity Pressure Visibility Wind Dir Wind Speed Gust Speed Precip Events Conditions
12:16 AM 23.0 °F - 19.4 °F 86% 30.04 in 10.0 mi Calm Calm - N/A   Overcast
12:36 AM 23.0 °F - 19.4 °F 86% 30.04 in 10.0 mi Calm Calm - N/A   Overcast
12:56 AM 23.0 °F - 19.4 °F 86% 30.04 in 4.0 mi Calm Calm - N/A Snow Light Snow
1:16 AM 23.0 °F - 21.2 °F 93% 30.03 in 3.0 mi Calm Calm - N/A Snow Light Snow
1:36 AM 23.0 °F - 21.2 °F 93% 30.04 in 1.5 mi Calm Calm - N/A Snow Light Snow
1:56 AM 24.8 °F - 21.2 °F 86% 30.03 in 1.5 mi Calm Calm - N/A Snow Light Snow
2:16 AM 24.8 °F - 23.0 °F 93% 30.03 in 1.5 mi Calm Calm - N/A Snow Light Snow
2:36 AM 24.8 °F - 23.0 °F 93% 30.03 in 3.0 mi Calm Calm - N/A Snow Light Snow
2:56 AM 24.8 °F - 23.0 °F 93% 30.02 in 3.0 mi Calm Calm - N/A Snow Light Snow
3:16 AM 26.6 °F 22.6 °F 23.0 °F 86% 30.01 in 2.5 mi South 3.5 mph - N/A Snow Light Snow
3:36 AM 26.6 °F 22.6 °F 23.0 °F 86% 29.99 in 4.0 mi SE 3.5 mph - N/A Snow Light Snow
3:56 AM 26.6 °F 22.6 °F 23.0 °F 86% 29.98 in 7.0 mi South 3.5 mph - N/A   Overcast
4:16 AM 26.6 °F 21.2 °F 24.8 °F 93% 29.98 in 10.0 mi South 4.6 mph - N/A   Overcast
4:36 AM 26.6 °F - 24.8 °F 93% 29.97 in 10.0 mi Calm Calm - N/A   Overcast
4:56 AM 26.6 °F - 24.8 °F 93% 29.98 in 10.0 mi Calm Calm - N/A   Overcast
5:16 AM 26.6 °F - 24.8 °F 93% 29.98 in 10.0 mi Calm Calm - N/A   Overcast
5:36 AM 26.6 °F 21.2 °F 24.8 °F 93% 29.97 in 10.0 mi South 4.6 mph - N/A   Overcast
5:56 AM 26.6 °F 22.6 °F 24.8 °F 93% 29.97 in 10.0 mi South 3.5 mph - N/A   Overcast
6:17 AM 26.6 °F 21.2 °F 26.6 °F 100% 29.97 in 10.0 mi South 4.6 mph - N/A   Overcast
6:36 AM 26.6 °F 21.2 °F 26.6 °F 100% 29.97 in 10.0 mi SSW 4.6 mph - N/A   Overcast
6:56 AM 26.6 °F 20.0 °F 26.6 °F 100% 29.97 in 10.0 mi SSW 5.8 mph - N/A   Overcast
7:16 AM 26.6 °F 21.2 °F 26.6 °F 100% 29.98 in 10.0 mi SSW 4.6 mph - N/A   Overcast
7:36 AM 28.4 °F 24.6 °F 26.6 °F 93% 29.98 in 10.0 mi SSW 3.5 mph - N/A   Overcast
7:56 AM 28.4 °F 24.6 °F 26.6 °F 93% 29.98 in 7.0 mi SW 3.5 mph - N/A   Overcast
8:16 AM 28.4 °F 23.3 °F 26.6 °F 93% 29.98 in 7.0 mi SSW 4.6 mph - N/A   Overcast
8:36 AM 28.4 °F 22.2 °F 26.6 °F 93% 30.00 in 7.0 mi WSW 5.8 mph - N/A   Overcast
8:56 AM 28.4 °F 20.4 °F 26.6 °F 93% 30.00 in 7.0 mi WSW 8.1 mph - N/A   Overcast
9:17 AM 28.4 °F 19.7 °F 26.6 °F 93% 30.01 in 10.0 mi WSW 9.2 mph - N/A   Overcast
9:36 AM 30.2 °F 21.9 °F 26.6 °F 86% 30.02 in 10.0 mi West 9.2 mph - N/A   Overcast
9:56 AM 30.2 °F 25.4 °F 26.6 °F 86% 30.00 in 10.0 mi WSW 4.6 mph - N/A   Overcast
10:17 AM 30.2 °F 24.3 °F 26.6 °F 86% 30.01 in 10.0 mi West 5.8 mph - N/A   Overcast
10:36 AM 32.0 °F 23.6 °F 26.6 °F 80% 30.02 in 10.0 mi West 10.4 mph - N/A   Overcast
10:56 AM 32.0 °F 23.6 °F 26.6 °F 80% 30.03 in 10.0 mi WNW 10.4 mph 17.3 mph N/A   Overcast
11:17 AM 32.0 °F 22.1 °F 26.6 °F 80% 30.04 in 10.0 mi WNW 13.8 mph 17.3 mph N/A   Overcast
11:36 AM 32.0 °F 24.2 °F 24.8 °F 75% 30.05 in 10.0 mi West 9.2 mph - N/A   Overcast
11:56 AM 32.0 °F 22.5 °F 26.6 °F 80% 30.06 in 10.0 mi West 12.7 mph 16.1 mph N/A   Overcast
12:17 PM 32.0 °F 24.2 °F 26.6 °F 80% 30.06 in 10.0 mi WNW 9.2 mph - N/A   Overcast
12:36 PM 32.0 °F 23.6 °F 26.6 °F 80% 30.06 in 10.0 mi West 10.4 mph - N/A   Overcast
12:56 PM 32.0 °F 23.6 °F 26.6 °F 80% 30.06 in 10.0 mi WNW 10.4 mph 18.4 mph N/A   Overcast
1:17 PM 32.0 °F 22.5 °F 26.6 °F 80% 30.06 in 10.0 mi West 12.7 mph 16.1 mph N/A   Overcast
1:36 PM 32.0 °F 23.6 °F 24.8 °F 75% 30.06 in 10.0 mi WNW 10.4 mph - N/A   Overcast
1:56 PM 32.0 °F 23.6 °F 24.8 °F 75% 30.07 in 10.0 mi WNW 10.4 mph 18.4 mph N/A   Overcast
2:16 PM 32.0 °F 22.1 °F 24.8 °F 75% 30.08 in 10.0 mi NW 13.8 mph 18.4 mph N/A   Overcast
2:36 PM 32.0 °F 21.2 °F 24.8 °F 75% 30.09 in 10.0 mi NW 16.1 mph 19.6 mph N/A   Overcast
2:56 PM 32.0 °F 22.5 °F 23.0 °F 69% 30.10 in 10.0 mi WNW 12.7 mph 19.6 mph N/A   Overcast
3:16 PM 32.0 °F 24.8 °F 23.0 °F 69% 30.11 in 10.0 mi NW 8.1 mph - N/A   Overcast
3:36 PM 32.0 °F 24.2 °F 23.0 °F 69% 30.12 in 10.0 mi NNW 9.2 mph - N/A   Overcast
3:56 PM 32.0 °F 24.2 °F 23.0 °F 69% 30.13 in 10.0 mi NNW 9.2 mph - N/A   Overcast
4:17 PM 32.0 °F 23.6 °F 23.0 °F 69% 30.14 in 10.0 mi NNW 10.4 mph - N/A   Overcast
4:36 PM 30.2 °F 22.6 °F 21.2 °F 69% 30.16 in 10.0 mi NW 8.1 mph - N/A   Overcast
4:56 PM 30.2 °F 21.3 °F 21.2 °F 69% 30.17 in 10.0 mi NNW 10.4 mph - N/A   Overcast
5:16 PM 30.2 °F 20.2 °F 21.2 °F 69% 30.17 in 10.0 mi North 12.7 mph - N/A   Overcast
5:36 PM 30.2 °F 21.9 °F 19.4 °F 64% 30.18 in 10.0 mi NNW 9.2 mph - N/A   Overcast
5:56 PM 30.2 °F 22.6 °F 19.4 °F 64% 30.20 in 10.0 mi North 8.1 mph - N/A   Overcast
6:16 PM 28.4 °F 20.4 °F 19.4 °F 69% 30.21 in 10.0 mi NNW 8.1 mph - N/A   Overcast
6:36 PM 28.4 °F 19.1 °F 19.4 °F 69% 30.23 in 10.0 mi NNW 10.4 mph - N/A   Overcast
6:56 PM 28.4 °F 20.4 °F 21.2 °F 74% 30.24 in 10.0 mi North 8.1 mph - N/A   Overcast
7:16 PM 28.4 °F 20.4 °F 21.2 °F 74% 30.25 in 10.0 mi North 8.1 mph - N/A   Overcast
7:36 PM 28.4 °F 21.2 °F 19.4 °F 69% 30.26 in 10.0 mi NNE 6.9 mph - N/A   Overcast
7:57 PM 28.4 °F 21.2 °F 19.4 °F 69% 30.28 in 10.0 mi North 6.9 mph - N/A   Overcast
8:16 PM 28.4 °F 19.7 °F 19.4 °F 69% 30.29 in 10.0 mi North 9.2 mph - N/A   Overcast
8:36 PM 26.6 °F 22.6 °F 19.4 °F 74% 30.29 in 10.0 mi North 3.5 mph - N/A   Overcast
8:57 PM 26.6 °F 20.0 °F 19.4 °F 74% 30.30 in 10.0 mi NE 5.8 mph - N/A   Overcast
9:16 PM 26.6 °F 17.5 °F 19.4 °F 74% 30.30 in 10.0 mi NNE 9.2 mph - N/A   Overcast
9:36 PM 26.6 °F 20.0 °F 19.4 °F 74% 30.30 in 10.0 mi NNE 5.8 mph - N/A   Overcast
9:57 PM 26.6 °F 22.6 °F 19.4 °F 74% 30.30 in 10.0 mi East 3.5 mph - N/A   Overcast
10:16 PM 26.6 °F 22.6 °F 17.6 °F 69% 30.30 in 10.0 mi East 3.5 mph - N/A   Overcast
10:36 PM 26.6 °F - 17.6 °F 69% 30.30 in 10.0 mi Calm Calm - N/A   Overcast
10:57 PM 26.6 °F 22.6 °F 17.6 °F 69% 30.29 in 10.0 mi East 3.5 mph - N/A   Overcast
11:16 PM 24.8 °F 19.1 °F 17.6 °F 74% 30.29 in 10.0 mi ESE 4.6 mph - N/A   Mostly Cloudy
11:36 PM 24.8 °F - 17.6 °F 74% 30.29 in 10.0 mi Calm Calm - N/A   Scattered Clouds
11:57 PM 23.0 °F - 17.6 °F 80% 30.29 in 10.0 mi Calm Calm - N/A   Clear